Huvudsida
METAR-TAF:

METAR-TAF

Flygplatser :

Zanjan, Iran

latitud: 36-41N, longitud: 048-29E, höjd: 1663 m

Aktuellt väderrapport

Denna rapport gjordes för 49 minuter sedan, klockan 08:00 UTC
Vind 4 kt från väst/sydväst
Temperatur 19°C
Fuktighet 43%
Tryck 1023 hPa
Sikt 10 km eller mer
Spridda moln på en höjd av 3500 ft

METAR: OITZ 210800Z 24004KT 9999 SCT035 19/06 Q1023

Tid: 12:19 (08:49 UTC)


TAF: saknas

Aktuella väderrapporter och prognoser från 4000 flygplatser (METAR- och TAF-rapporter).

De tillgängliga stationerna syns som gula och röda prickar på kartan.

För musen över prickarna för att se namnen på stationerna.

Klicka sedan för att få väderrapporter och prognoser.

För att ändra kartan: Klicka på de gröna knapparna med ett svart kors på för att zooma in; den gröna knappen med ett streck på för att zooma ut; eller på de gröna pilarna för angränsande kartor.


METAR-TAF: